DW2470 Weather Reports


time (UTC)temp
F
wind
direction
speed
knots
gust
knots
rain 1hr
in
rain 24hr
in
rain mn
in
humidity
%
barometer
mb
20260901224501 74 204 2.6 0.0 0.00 0.00 0.00 56 1007.9
20260901223100 75 198 1.7 0.0 0.00 0.00 0.00 54 1007.9
20260901221610 74 14 2.6 0.0 0.00 0.00 0.00 56 1007.8
20260901220058 74 14 2.6 0.0 0.00 0.00 0.00 56 1007.8
20260901214555 75 123 1.7 0.0 0.00 0.00 0.00 53 1007.7
20260901213055 75 14 3.5 0.0 0.00 0.00 0.00 54 1007.6
20260901211553 76 300 4.3 0.0 0.00 0.00 0.00 51 1007.7
20260901210052 76 157 2.6 0.0 0.00 0.00 0.00 53 1007.7
20260901204551 77 175 2.6 0.0 0.00 0.00 0.00 52 1007.7
20260901203056 77 281 2.6 0.0 0.00 0.00 0.00 52 1007.7
20260901201551 77 193 3.5 0.0 0.00 0.00 0.00 52 1007.8
20260901200047 77 204 2.6 0.0 0.00 0.00 0.00 53 1007.9
20260901194547 77 183 3.5 0.0 0.00 0.00 0.00 52 1007.8
20260901193048 76 315 2.6 0.0 0.00 0.00 0.00 53 1008.0
20260901191545 77 294 2.6 0.0 0.00 0.00 0.00 51 1007.8
20260901190043 77 221 3.5 0.0 0.00 0.00 0.00 49 1007.8
20260901184541 77 248 3.5 0.0 0.00 0.00 0.00 52 1007.6
20260901183059 76 314 2.6 0.0 0.00 0.00 0.00 52 1007.6
20260901181509 76 64 2.6 0.0 0.00 0.00 0.00 52 1008.0
20260901180014 77 55 2.6 0.0 0.00 0.00 0.00 52 1008.1
20260901174503 76 144 2.6 0.0 0.00 0.00 0.00 54 1008.0
20260901173143 75 116 3.5 0.0 0.00 0.00 0.00 53 1008.3
20260901171601 75 254 4.3 0.0 0.00 0.00 0.00 54 1008.4
20260901170101 75 208 3.5 0.0 0.00 0.00 0.00 55 1008.4
20260901164552 74 92 3.5 0.0 0.00 0.00 0.00 55 1008.8
20260901163108 73 135 3.5 0.0 0.00 0.00 0.00 59 1009.0
20260901161554 73 171 2.6 0.0 0.00 0.00 0.00 61 1009.0
20260901160052 72 210 3.5 0.0 0.00 0.00 0.00 63 1009.1
20260901154544 72 193 3.5 0.0 0.00 0.00 0.00 66 1008.9
20260901153039 71 163 2.6 0.0 0.00 0.00 0.00 70 1009.1
20260901151542 70 96 2.6 0.0 0.00 0.00 0.00 73 1008.8
20260901150032 69 36 1.7 0.0 0.00 0.00 0.00 78 1008.8
20260901144524 67 73 0.9 0.0 0.00 0.00 0.00 86 1008.8
20260901143021 65 286 0.9 0.0 0.00 0.00 0.00 95 1008.8
20260901141521 64 229 0.0 0.0 0.00 0.00 0.00 98 1008.7
20260901140012 62 228 0.9 0.0 0.00 0.00 0.00 99 1009.0
20260901134510 61 216 0.9 0.0 0.00 0.00 0.00 99 1009.3
20260901133003 60 199 0.0 0.0 0.00 0.00 0.00 99 1009.4
20260901131600 59 198 0.0 0.0 0.00 0.00 0.00 99 1009.5
20260901124556 57 198 0.0 0.0 0.00 0.00 0.00 98 1009.3
20260901123055 56 198 0.0 0.0 0.00 0.00 0.00 98 1009.4
20260901121559 55 198 0.0 0.0 0.00 0.00 0.00 98 1009.3
20260901120104 55 196 0.0 0.0 0.00 0.00 0.00 98 1009.3
20260901114550 55 196 0.0 0.0 0.00 0.00 0.00 98 1009.2
20260901113048 55 196 0.0 0.0 0.00 0.00 0.00 98 1009.0
20260901111554 55 196 0.0 0.0 0.00 0.00 0.00 98 1008.9
20260901110050 55 194 0.0 0.0 0.00 0.00 0.00 98 1008.8
20260901104544 55 184 0.0 0.0 0.00 0.00 0.00 98 1008.6
20260901103053 55 184 0.0 0.0 0.00 0.00 0.00 98 1008.6
20260901101545 55 184 0.0 0.0 0.00 0.00 0.00 98 1008.6
20260901100045 55 184 0.0 0.0 0.00 0.00 0.00 98 1008.6
20260901094542 55 184 0.0 0.0 0.00 0.00 0.00 98 1008.4
20260901093038 55 184 0.0 0.0 0.00 0.00 0.00 98 1008.4
20260901091537 55 184 0.0 0.0 0.00 0.00 0.00 98 1008.6
20260901090035 56 184 0.0 0.0 0.00 0.00 0.00 98 1008.6
20260901084537 56 184 0.0 0.0 0.00 0.00 0.00 98 1008.7
20260901083032 56 184 0.0 0.0 0.00 0.00 0.00 98 1008.8
20260901081530 56 184 0.0 0.0 0.00 0.00 0.00 98 1009.0
20260901080030 56 184 0.0 0.0 0.00 0.00 0.00 98 1009.0
20260901074528 56 184 0.0 0.0 0.00 0.00 0.00 98 1008.8
20260901073037 56 184 0.0 0.0 0.00 0.00 0.00 98 1008.8
20260901071526 56 184 0.0 0.0 0.00 0.00 0.00 97 1008.8
20260901070023 57 184 0.0 0.0 0.00 0.00 0.00 98 1008.5
20260901064521 57 184 0.0 0.0 0.00 0.00 0.00 97 1008.7
20260901063023 57 184 0.0 0.0 0.00 0.00 0.00 97 1008.8
20260901061517 57 184 0.0 0.0 0.00 0.00 0.00 97 1009.0
20260901060033 58 184 0.0 0.0 0.00 0.00 0.00 97 1009.0
20260901054515 58 184 0.0 0.0 0.00 0.00 0.33 97 1009.0
20260901053010 59 184 0.0 0.0 0.00 0.00 0.33 97 1008.9
20260901051509 59 185 0.0 0.0 0.00 0.00 0.33 97 1008.7
20260901050008 59 185 0.0 0.0 0.00 0.00 0.33 97 1008.8
20260901044507 59 185 0.0 0.0 0.00 0.00 0.33 97 1008.8
20260901043001 60 185 0.0 0.0 0.00 0.00 0.33 97 1008.8
20260901041620 60 183 0.0 0.0 0.00 0.00 0.33 97 1008.9
20260901040135 61 183 0.0 0.0 0.00 0.00 0.33 97 1008.9
20260901034557 61 183 0.0 0.0 0.00 0.00 0.33 97 1008.9
20260901033053 62 183 0.0 0.0 0.00 0.00 0.33 97 1008.8
20260901031554 63 183 0.0 0.0 0.00 0.00 0.33 96 1008.7
20260901030055 64 183 0.0 0.0 0.00 0.00 0.33 97 1008.9
20260901024554 65 181 0.0 0.0 0.00 0.00 0.33 97 1008.7
20260901023052 65 182 0.0 0.0 0.00 0.00 0.33 97 1008.5
20260901021548 65 182 0.0 0.0 0.00 0.00 0.33 97 1008.7
20260901020048 66 182 0.0 0.0 0.00 0.00 0.33 97 1008.7
20260901014547 66 182 0.0 0.0 0.00 0.00 0.33 97 1008.7
20260901013047 66 183 0.0 0.0 0.00 0.00 0.33 97 1008.3
20260901011544 67 182 0.0 0.0 0.00 0.00 0.33 97 1008.3
20260901010053 68 122 0.9 0.0 0.00 0.00 0.33 97 1008.1
20260901004543 69 121 0.9 0.0 0.00 0.00 0.33 97 1007.8
20260901003018 69 121 0.0 0.0 0.00 0.00 0.33 97 1007.6
20260901001522 69 120 0.9 0.0 0.00 0.00 0.33 97 1007.5
20260901000010 70 120 0.0 0.0 0.00 0.00 0.33 97 1007.5
20260831234509 71 120 0.0 0.0 0.00 0.00 0.33 97 1007.4
20260831233014 71 120 0.0 0.0 0.00 0.00 0.33 97 1007.5
20260831231516 71 120 0.0 0.0 0.00 0.00 0.33 98 1007.3
20260831230038 72 120 0.0 0.0 0.00 0.00 0.33 98 1007.5